Other Public Products
Issued by NWS Grand Forks, ND

Home | Current Version | Previous Version | Text Only | Print | Product List | Glossary On
Versions: 1 2 3 4 5 6 7 8 9 10 11 12 13 14 15 16 17 18 19 20 21 22 23 24 25 26 27 28 29 30 31 32 33 34 35 36 37 38 39 40 41 42 43 44 45 46 47 48 49 50
000
FPUS83 KFGF 301331
OPUFGF
PRAIRIE TO PINES WEATHER ROUNDUP
NATIONAL WEATHER SERVICE EASTERN NORTH DAKOTA/GRAND FORKS ND
800 AM CDT SUN AUG 30 2015

 **SATELLITE DATA USED TO AUGMENT SKY COVER AT AUTOMATED STATIONS**
 *****  WEATHER ACROSS EASTERN NORTH DAKOTA  *****

CITY           SKY/WX    TMP DP  RH WIND       PRES   REMARKS
GRAND FORKS    PTSUNNY   65  63  93 S17       29.77F
GRAND FORKS AF PTSUNNY   66  64  94 S17       29.77F
GRAND CITY NWS   N/A     63 N/A N/A S10         N/A
BUXTON         NOT AVBL
DEVILS LAKE    MOSUNNY   68  61  77 SE8       29.73S
FARGO          SUNNY     65  61  87 S14       29.83S
WAHPETON ARPT  SUNNY     61  59  94 SE12      29.87S
$$

 *****  WEATHER ACROSS CENTRAL AND WESTERN NORTH DAKOTA  *****

CITY           SKY/WX    TMP DP  RH WIND       PRES   REMARKS
JAMESTOWN      CLOUDY    65  63  93 S10       29.79S FOG
BISMARCK       MOCLDY    64  60  87 SE6       29.74F
MINOT          MOCLDY    67  58  72 SE5       29.67S
MINOT AFB      CLOUDY    60  60  99 CALM      29.66F
GARRISON         N/A     66  61  84 CALM      29.71S
WILLISTON      MOCLDY    62  54  74 CALM      29.65F HAZE
DICKINSON      NOT AVBL
HETTINGER      MOCLDY    62  49  62 SE6       29.76F
$$

 *****  OTHER OBSERVATIONS NORTHEAST NORTH DAKOTA  *****

CITY           SKY/WX    TMP DP  RH WIND       PRES   REMARKS
WALHALLA       FAIR      66  66 100 MISG      29.73F
LANGDON        FAIR      70  66  88 S8        29.76S
CAVALIER       FOG       66  66 100 S9        29.75F VSB 1/2
GRAFTON        CLOUDY    66  66 100 S12       29.77F
CANDO          FAIR      66  66 100 SE8       29.74S
FORT TOTTEN      N/A     66  63  90 S8        29.95S
ROLLA          FAIR      66  66 100 S5        29.74F
RUGBY          FAIR      66  64  94 SE7       29.70F
 ***** THE ABOVE OBSERVATIONS ARE NON NWS ARE NOT QUALITY
        CONTROLLED AND MAY MIS-REPORT RAIN FOR SNOW...
$$

 *****  OTHER OBSERVATIONS SOUTHEAST NORTH DAKOTA *****

CITY           SKY/WX    TMP DP  RH WIND       PRES   REMARKS
COOPERSTOWN    NOT AVBL
VALLEY CITY    CLOUDY    64  64 100 S13       29.81S FOG
OAKES            N/A     64  64 100 S9        29.84S
GWINNER          N/A     66  66 100 S12       29.84S
SHEYENNE NWR     N/A     60  60  99 SE3       29.95S
BUFFALO        NOT AVBL
WYNDMERE         N/A     63  63 100 SE6         N/A
 ***** THE ABOVE OBSERVATIONS ARE NON NWS ARE NOT QUALITY
       CONTROLLED AND MAY MIS-REPORT RAIN FOR SNOW...
$$

  *****  WEATHER ACROSS NORTHERN MINNESOTA  *****

CITY           SKY/WX    TMP DP  RH WIND       PRES   REMARKS
FLAG ISLAND    MOSUNNY   66  64  94 S3        29.80S
WARROAD        PTSUNNY   66  63  88 S8        29.81S
ROSEAU         CLOUDY    66  61  82 S14       29.80R
HALLOCK        CLOUDY    66  64  94 S13       29.76S
THF RVR FALLS  MOSUNNY  N/A N/A N/A S10       29.81F
HALSTAD        NOT AVBL
FOSSTON        SUNNY     64  63  94 S8        29.86S
BAUDETTE       MOSUNNY   65  63  93 SW7       29.82R
WASKISH        MOSUNNY   66  64  94 S5        29.85S
CROOKSTON      MOSUNNY   66  64  94 S16       29.81S
$$
  *****  WEATHER ACROSS CENTRAL AND WEST MINNESOTA  *****

CITY           SKY/WX    TMP DP  RH WIND       PRES   REMARKS
BEMIDJI        CLOUDY    64  63  97 S8        29.88F
PARK RAPIDS    CLOUDY    63  61  93 S9        29.91S
WADENA         SUNNY     61  61 100 S6        29.92R
DETROIT LAKES  SUNNY     64  63  94 S9        29.89F
MOORHEAD       SUNNY     64  63  94 S13       29.85S
FERGUS FALLS   SUNNY     63  63 100 S10       29.89S
ELBOW LAKE     FAIR      62  61  97 S14       29.90S FOG
MORRIS MN      SUNNY     63  61  94 S10       29.91S FOG
STAPLES        CLOUDY    61  61 100 S9        29.93S FOG
WHEATON        SUNNY     61  59  94 SE12      29.90S FOG
$$
  *****  WEATHER ELSEWHERE ACROSS MINNESOTA  *****

CITY           SKY/WX    TMP DP  RH WIND       PRES   REMARKS
DULUTH         CLOUDY    64  61  90 SW9       29.96S
INTRNTL FALLS  CLOUDY    64  63  96 S8        29.85S
ELY            CLOUDY    63  59  88 SW7       29.92S
CLOQUET        PTSUNNY   64  61  88 S8        29.96S
BRAINERD       CLOUDY    62  60  93 S9        29.95R
HIBBING        CLOUDY    63  61  93 S7        29.94S
ALEXANDRIA     MOSUNNY   63  61  93 S9        29.95S
SAINT CLOUD    CLOUDY    60  59  96 S9        29.97R
MINNEAPOLIS    CLOUDY    63  60  90 S7        30.00S
$$

  *****  WEATHER ACROSS SOUTH DAKOTA  *****

CITY           SKY/WX    TMP DP  RH WIND       PRES   REMARKS
SIOUX FALLS    FOG       62  61  96 S8        30.00S VSB 3/4
BROOKINGS      CLOUDY    61  57  88 S14       29.99S
WATERTOWN      SUNNY     62  60  93 S14       29.93S
HURON          SUNNY     63  62  97 SE14      29.89R
SISSETON         N/A     66  62  87 S6        29.86R
ABERDEEN       MOSUNNY   65  62  90 S12       29.85S
MITCHELL       CLOUDY    63  63 100 S15       29.94S FOG
PIERRE         CLEAR     67  56  67 S8        29.82S
MOBRIDGE       MOCLDY    67  62  84 SE14      29.78R
RAPID CITY     CLEAR     61  48  62 SE6       29.84S
$$

  *****  SOME WEATHER IN NEARBY STATES *****

CITY           SKY/WX    TMP DP  RH WIND       PRES   REMARKS
GLASGOW MT     MOCLDY    69  52  54 NW12      29.69R HAZE
GREAT FALLS MT CLOUDY    59  53  80 S7        29.84R HAZE
CHEYENNE WY    PTCLDY    60  39  45 W12       30.14R
SCOTTSBLUFF NE PTCLDY    58  48  69 E8        29.98S
OMAHA NE       CLOUDY    63  62  97 SW6       30.05R FOG
DES MOINES IA  FOG       63  61  93 CALM      30.05S VSB 1/2
DAVENPORT IA   FOG       61  61 100 E5        30.07R VSB 1/4
CHICAGO IL     CLOUDY    66  63  90 CALM      30.07S FOG
EAU CLAIRE WI  SUNNY     60  58  92 S5        30.04S
LA CROSSE WI   FOG       60  59  96 SE6       30.06R VSB<1/4
$$

  *****  SOME NATIONAL WEATHER *****

CITY           SKY/WX    TMP DP  RH WIND       PRES   REMARKS
LA GUARDIA NY  MOSUNNY   76  63  64 CALM      30.10S
RALEIGH NC     PTSUNNY   76  62  62 CALM      30.17S
ATLANTA GA     CLOUDY    70  64  81 E10       30.11R
NEW ORLEANS LA MOSUNNY   78  68  71 CALM      30.04R
OKLAHOMA CITY  MOSUNNY   66  64  93 NW7       30.00R
ALBUQUERQUE NM PTCLDY    64  50  60 N7        30.24R
SALT LAKE CITY MOCLDY    80  45  28 NW5       29.95R
LOS ANGELES CA PTCLDY    72  67  84 N5        29.87R
BOISE ID       CLEAR     57  43  59 CALM      29.94R
SEATTLE WA     RAIN      55  54  94 S12       29.82R
$$

*** WEATHER ACROSS MANITOBA...SASKATCHEWAN AND ONTARIO ***
                ***ONTARIO***

CITY           SKY/WX    TMP DP  RH WIND       PRES   REMARKS
GERALDTON      CLOUDY    61  59  94 SW12      29.84F FOG
THUNDER BAY    MOSUNNY   57  55  94 CALM      29.89S
SIOUX LOOKOUT  CLOUDY    66  64  94 SW6       29.81S
TORONTO        PTSUNNY   68  61  77 CALM      30.09R
BIG TROUT LK   PTSUNNY   68  63  83 W7        29.59S
PICKLE LAKE    PTSUNNY   70  64  83 SW13      29.71S
DRYDEN         CLOUDY    66  64  94 SW12      29.82S
KENORA         CLOUDY    66  64  94 SW8       29.81F FOG
$$
                *** MANITOBA***

CITY           SKY/WX    TMP DP  RH WIND       PRES   REMARKS
BRANDON        PTSUNNY   63  61  94 E8        29.69F SMOKE
DAUPHIN        CLEAR     59  55  88 SW6       29.71R
ISLAND LAKE    CLOUDY    61  57  88 NE8       29.72R
PILOT MOUND      N/A     66  64  94 S8          N/A
THE PAS        CLOUDY    61  57  88 E8        29.69F
THOMPSON       PTSUNNY   50  46  87 NE8       29.80S
WINNIPEG       PTSUNNY   66  66 100 S10       29.73
LYNN LAKE      CLOUDY    50  48  93 MISG      29.78R
CHURCHILL      PTSUNNY   48  45  87 E13       29.89R
$$
                ***SASKATCHEWAN***

CITY           SKY/WX    TMP DP  RH WIND       PRES   REMARKS
ESTEVAN        MOCLDY    64  57  77 E6        29.65F SMOKE
KINDERSLEY     PTCLDY    55  39  54 S8        29.63S
LLOYDMINSTER   PTCLDY    54  43  66 SW10      29.52R
PRINCE ALBERT  MOCLDY    57  54  88 NE3       29.56S
REGINA         MOCLDY    61  52  72 SW9       29.65R SMOKE
YORKTON        CLEAR     66  54  63 E9        29.63F



USA.gov is the U.S. government's official web portal to all federal, state and local government web resources and services.